Regional Weather Roundup
Issued by NWS

Home | Current Version | Previous Version | Text Only | Print | Product List | Glossary On
Versions: 1 2 3 4 5 6 7 8 9 10 11 12 13 14 15 16 17 18 19 20 21 22 23 24 25 26 27 28 29 30 31 32 33 34 35 36 37 38 39 40 41 42 43 44 45 46 47 48 49 50
000
ASHW40 PHFO 191312
RWRHI

WEATHER ROUNDUP FOR HAWAII
NATIONAL WEATHER SERVICE HONOLULU HI
300 AM HST THU OCT 19 2017

THIS IS AN AUTOMATED REPORT THAT HAS NOT BEEN QUALITY CONTROLLED.

NOTE..."FAIR" INDICATES FEW OR NO CLOUDS BELOW 12,000 FEET WITH NO
SIGNIFICANT WEATHER AND/OR OBSTRUCTIONS TO VISIBILITY.

* - THESE SITES REPORT LIMITED FIELDS
# - BUOY DATA PROVIDED BY PACIFIC ISLANDS OCEAN OBSERVING SYSTEM.

HIZ001>004-191400-
KAUAI-NIIHAU-

CITY           SKY/WX    TMP DP  RH WIND       PRES   REMARKS
LIHUE APT      MOCLDY    77  70  79 NE18      30.12F
PORT ALLEN*      N/A     73 N/A N/A NE18G26     N/A
POIPU*           N/A     73 N/A N/A NE10G23     N/A
PRINCEVILLE*     N/A     75 N/A N/A SE8G17      N/A
KOKOLE POINT*  NOT AVBL
MOLOAA DAIRY*    N/A     75  68  78 E7G18       N/A
WAIMEA HTS*    NOT AVBL
PUU OPAE*      NOT AVBL
PUU LUA*       NOT AVBL
MAKAHA RIDGE*  NOT AVBL
$$

HIZ005>011-191400-
OAHU-

CITY           SKY/WX    TMP DP  RH WIND       PRES   REMARKS
HONOLULU       MOCLDY    77  66  68 NE15      30.07F
KALAELOA       LGT RAIN  74  66  76 NE8       30.09S
KANEOHE MCB    PTCLDY    79  69  71 E12G21    30.06F
WHEELER FIELD  DRIZZLE   69  67  94 NW5       30.09
BELLOWS*       NOT AVBL
KAHUKU*        NOT AVBL
WHEELER*       NOT AVBL
WAIANAE HARBOR NOT AVBL
DILLINGHAM*      N/A     81  79  94 W1          N/A
KAHUKU TRN*      N/A     73  66  78 W13G25      N/A
KAWAILOA*        N/A     72  64  78 E12G25      N/A
KII*             N/A     77  68  73 E22G30      N/A
MAKUA RANGE*     N/A     75  68  78 W2G8        N/A
OAHU FOREST NW NOT AVBL
SCHOFIELD BRK*   N/A     68  64  88 MISG        N/A
SCHOFIELD S*   NOT AVBL
WAIANAE VLY*   NOT AVBL
KUAOKALA*      NOT AVBL
HONOULIUULI*   NOT AVBL
MOKUOLOE IS*   NOT AVBL
PALEHUA*       NOT AVBL
WAIAWA PHB*    NOT AVBL
$$

HIZ012>013-191400-
MOLOKAI-

CITY           SKY/WX    TMP DP  RH WIND       PRES   REMARKS
MOLOKAI AIRPT  MOCLDY    73  68  84 NE10G17   30.08F
KALAUPAPA      NOT AVBL
MAKAPULAPAI*   NOT AVBL
MOLOKAI 1*     NOT AVBL
PUU ALII*      NOT AVBL
$$

HIZ016-191400-
KAHOOLAWE-

CITY           SKY/WX    TMP DP  RH WIND       PRES   REMARKS
KAHOOLAWE*     NOT AVBL
HAKIOAWA*      NOT AVBL
HONOKANAIA*      N/A     76  65  68 E10G35      N/A
KANELOA*         N/A     73  64  73 E25G32      N/A
KEALIALALO*    NOT AVBL
LUA MAKIKA*    NOT AVBL
$$

HIZ014>015-191400-
LANAI-

CITY           SKY/WX    TMP DP  RH WIND       PRES   REMARKS
LANAI CITY     FAIR      70  63  78 NE14      30.11F
LANAI 1*       NOT AVBL
$$

HIZ017>028-191400-
MAUI-

CITY           SKY/WX    TMP DP  RH WIND       PRES   REMARKS
KAHULUI        MOCLDY    77  68  73 NE12G21   30.06F
KAPALUA-W MAUI NOT AVBL
HANA AIRPORT   NOT AVBL
HANA*            N/A     72 N/A N/A S3          N/A
HALEAKALA SUMM   N/A     50   3  14 NE23G44     N/A
MAALAEA BAY*   NOT AVBL
HALEAKALA*     NOT AVBL
KAUPO GAP*     NOT AVBL
KULA 1*          N/A    N/A N/A N/A E5          N/A
$$

HIZ023>026-191400-
BIG ISLAND OF HAWAII COAST AND LOWER SLOPES-

CITY           SKY/WX    TMP DP  RH WIND       PRES   REMARKS
KAILUA KONA    CLEAR     74  62  66 E3        29.99F
HILO           CLOUDY    69  65  86 CALM      30.07F
HONOKAA*         N/A     70 N/A N/A VRB1        N/A
KAWAIHAE MWT*    N/A     79 N/A N/A NE10G24     N/A
KAWAIHAE*      NOT AVBL
SOUTH POINT*     N/A     70 N/A N/A NW7G13      N/A
UPOLU AIRPORT* NOT AVBL
KAMUELA*         N/A     63  55  77 NE24      30.10F
HAKALAU*         N/A     45  43  93 W2          N/A
KALOKO-HONOKO* NOT AVBL
PALI 2*          N/A     64  55  72 S25G35      N/A
KEALAKOMO*       N/A     75  61  60 N21G33      N/A
KAUPULEHU*     NOT AVBL
KAPAPALA*        N/A     59  54  82 VRB3G10     N/A
LOWER KAHUKU*  NOT AVBL
PUHE CS*       NOT AVBL
PUHO CS*       NOT AVBL
PTA KEAMUKU*     N/A     57  52  82 E7G13       N/A
WAIKOLOA*      NOT AVBL
$$

HIZ027>028-191400-
BIG ISLAND OF HAWAII INTERIOR AND SUMMMITS-

CITY           SKY/WX    TMP DP  RH WIND       PRES   REMARKS
BRADSHAW FIELD PTCLDY    46  37  70 SE7       30.32
MK VISITOR CEN   N/A     57  -6   7 N14         N/A
MAUNA KEA*       N/A     41 -18   7 NE29        N/A
MAUNA LOA*     NOT AVBL
MAUNA LOA 1*   NOT AVBL
PTA KIPUKA*      N/A     73  70  88 W3          N/A
PTA RANGE 17*    N/A     54  46  76 W16G28      N/A
PTA WEST*        N/A     54  46  76 SE8G14      N/A
NENE CABIN*    NOT AVBL
AHUMOA*        NOT AVBL
PTA PORTABLE*  NOT AVBL
PUU MALI*        N/A     63   3   9 E18G33      N/A
$$

HIC003-191400-
NORTHWEST ISLANDS-

CITY           SKY/WX    TMP DP  RH WIND       PRES   REMARKS
MIDWAY ISLAND  MOCLDY    77  72  83 E16       30.24F
MIDWAY NOS*    NOT AVBL
FRENCH FRIGATE NOT AVBL
$$

PHZ110>124-180-191400-
BUOY REPORTS

STATION/POSITION TIME  TEMP    WIND        PRES    WAVE   SWELL
                       AIR SEA DIR/SP/G            HT/PER HT/DIR
                 (UTC) (F)     (DEG/KT/KT) (MB)    (FT/S) (FT/D)
BUOY 51001       1250   78 81   70/ 19/ 25 1021.5F  10/ 9   2/ 20
BUOY 51101       1250   78 80   70/ 21/ 27 1021.5F  10/ 9   2/100
BUOY 51100       NOT AVBL
BUOY 51002       1250   79 80   70/ 21/ 27 1014.5F  10/ 9
BUOY 51003       1250   78 81   50/ 17/ 19 1016.4S   9/ 9   7/ 80
BUOY 51004       1250   78 80   60/ 17/ 21 1015.0F   9/ 9   3/ 60
WAIMEA BAY#      1202      78                N/A     8/ 9   2/ 20
MOKAPU POINT#    1234      80                N/A     9/ 9   2/ 30
LANAI#           NOT AVBL
BARBERS PT 2#    NOT AVBL
PAUWELA#         NOT AVBL
HILO#            1227      80                N/A     7/ 8   2/ 20
KANEOHE BAY#     NOT AVBL
KANEOHE BAY 2#   NOT AVBL
HANALEI#         1252      80                N/A     9/ 9   2/ 50
KAHULUI HARBOR   1242   77 78   50/ 17/ 21 1018.3F
HONOLULU HARBOR  1242   78 80   70/  6/ 13 1019.1F
PEARL HARBOR#    1200      80                N/A     3/ 6   2/150
KILO NALU        NOT AVBL
HILO HARBOR      1242   74 79  310/  9/ 10 1018.0F
MOKUOLOE         1236   78 78   70/ 16/ 23 1019.0F
NAWILIWILI       1242   75 81   50/ 10/ 17 1019.8F
WHOTS BUOY       NOT AVBL
BUOY 51028       NOT AVBL
$$

......................KEY........................................
  SKY/WX - SKY CONDITIONS/PRESENT WEATHER
  TMP    - TEMPERATURE IN FAHRENHEIT
  DWPT   - DEWPOINT IN FAHRENHEIT
  RH     - RELATIVE HUMIDITY IN PERCENT
  WIND   - DIRECTION AND SPEED /MPH FOR ISLANDS...KTS FOR BUOYS/
  PRES   - MEAN SEA LEVEL PRESSURE IN INCHES OF HG
  VSB    - VISIBILITY IN MILES
  HX     - HEAT INDEX
  WCI    - WIND CHILL INDEX
  VRB    - VARIABLE WIND DIRECTION
  N/A    - NOT AVAILABLE




USA.gov is the U.S. government's official web portal to all federal, state and local government web resources and services.